Wetbulb
46.07 46.45 43.78 41.86 40.43 38.93 39.85 39.98 38.38 40.10 40.86 39.67 37.19 36.13 37.57 36.25 36.00 36.30 36.20 35.69 35.18 34.29 33.68 32.27 30.78 30.30 29.84 29.06 28.46 28.35 27.93 27.36 27.30 28.07 28.59 28.73 30.44 30.41 30.36 30.64 30.22 31.21 31.89
44.31 45.05 40.93 39.29 38.67 39.73 39.27 38.81 38.26 38.55 40.24 40.26 39.98 37.45 39.70 36.04 37.60 35.53 33.89 34.82 33.45 33.36 33.33 32.38 30.95 30.29 28.71 28.14 27.94 28.33 27.11 27.04 26.34 27.10 26.26 26.58 27.93 29.07 30.34 30.00 30.51 29.00 30.13
43.21 44.42 39.68 39.13 38.02 37.26 37.09 38.79 38.42 38.07 39.54 39.08 37.61 31.38 31.06 30.13 30.44 30.66 32.12 31.97 33.32 32.97 32.95 32.18 31.33 30.13 29.53 28.77 27.80 27.30 27.92 26.42 26.20 26.10 27.77 25.07 26.19 24.83 27.47 28.42 28.43 27.95 28.36
40.18 40.25 39.62 38.37 38.57 38.94 37.40 37.58 37.12 36.94 38.44 38.30 36.93 36.05 35.57 34.79 35.40 36.79 36.13 33.81 32.86 32.45 32.10 31.81 30.88 30.18 29.05 27.33 27.58 27.68 26.78 27.28 25.89 26.88 27.81 25.94 26.02 24.94 24.99 25.94 26.55 27.67 28.00
39.02 39.38 39.44 39.26 38.91 37.54 36.16 35.62 36.00 35.94 37.54 37.83 37.38 37.03 36.84 37.25 31.88 32.16 33.19 32.44 31.11 31.52 30.98 30.79 29.49 28.91 28.79 27.47 27.81 26.55 26.34 26.34 26.59 26.34 25.54 24.65 23.84 23.97 23.42 23.74 24.26 25.53 25.84
39.66 39.11 38.41 37.59 37.25 34.53 33.23 33.35 34.38 34.66 35.81 36.69 36.47 36.90 36.56 30.86 31.42 30.13 31.65 30.67 29.99 29.21 29.20 29.72 29.67 29.23 28.34 27.51 27.71 26.82 26.41 26.01 25.85 25.50 25.49 25.11 23.47 23.34 22.93 21.61 21.85 22.11 24.25
37.60 37.88 37.81 36.80 36.22 33.37 32.01 32.14 32.64 32.55 33.74 34.96 35.39 35.72 35.69 32.61 33.38 31.59 32.70 30.60 30.02 29.87 29.71 29.80 28.73 27.96 28.43 27.46 27.15 26.80 26.07 25.72 25.20 24.95 24.43 24.90 24.61 25.54 24.64 23.36 21.84 21.82 23.92
37.81 37.56 38.14 35.73 35.17 34.19 31.88 32.57 32.39 32.14 32.24 33.57 34.27 33.83 33.95 33.60 33.56 31.92 32.56 31.49 31.95 31.96 29.96 28.77 28.29 27.96 27.32 26.98 26.82 26.37 25.67 25.05 25.22 24.29 24.37 24.93 25.15 25.61 25.51 24.66 23.37 21.22 22.41
37.82 38.54 38.30 36.34 34.50 33.40 32.55 32.07 31.93 32.43 31.99 32.60 32.76 32.79 33.12 32.89 32.45 30.25 30.50 31.26 31.57 30.77 28.38 28.76 27.59 26.86 26.92 26.71 26.22 26.27 25.19 24.97 24.82 24.14 24.53 24.60 24.52 25.06 25.10 25.56 24.78 22.50 18.13
37.60 37.71 38.95 38.03 35.49 33.86 32.68 32.16 32.09 32.23 31.92 32.17 33.52 33.90 33.71 34.06 32.73 30.66 30.58 30.06 30.37 28.69 27.42 28.05 27.58 26.49 26.83 26.53 26.14 25.36 24.47 24.35 24.10 24.46 24.29 24.30 24.43 24.40 24.62 25.49 24.49 23.33 19.73
35.05 35.81 36.70 37.18 37.40 36.49 34.22 32.78 31.82 31.28 31.11 30.90 32.04 31.48 30.80 31.65 31.50 30.50 30.75 30.68 29.46 28.27 27.41 28.10 27.33 26.54 26.39 26.30 26.00 25.47 24.39 24.29 23.43 23.59 23.67 23.36 23.54 22.26 21.34 21.60 21.09 20.84 20.75
33.03 34.26 34.92 35.27 35.86 36.78 37.97 37.48 34.88 32.83 32.82 32.07 31.81 30.48 31.25 30.32 30.06 30.45 30.38 30.01 28.98 28.15 28.24 27.87 27.09 26.86 26.84 26.16 26.03 24.57 24.35 23.63 22.76 22.97 22.69 21.64 22.03 19.51 19.18 18.82 18.40 18.54 19.22
31.71 32.58 33.71 34.26 35.02 35.51 36.02 35.96 36.10 36.07 34.88 34.87 31.77 31.10 30.87 29.77 30.99 31.70 31.03 29.89 29.69 28.26 28.22 27.70 26.91 26.67 26.57 25.71 26.17 25.57 24.39 24.01 23.81 23.01 21.83 20.48 19.55 17.50 17.10 16.56 16.34 16.46 18.01
30.63 31.62 32.45 33.59 34.75 35.44 35.44 35.14 34.83 34.89 34.26 33.50 32.10 31.28 30.33 31.01 32.61 32.93 31.55 29.50 29.67 28.34 27.77 27.69 27.56 27.10 26.83 26.26 26.11 25.39 24.24 23.62 23.27 22.76 21.83 19.89 18.94 18.01 16.19 15.92 15.64 15.93 14.90
30.17 31.72 32.26 33.27 34.58 34.15 34.66 34.39 34.54 33.66 33.19 32.42 32.82 32.99 32.28 30.91 31.54 31.56 31.68 29.09 28.72 28.90 28.33 27.27 26.93 26.74 26.47 26.17 25.59 25.50 23.82 22.46 21.77 21.05 20.84 19.67 19.47 21.83 19.06 16.54 15.26 15.22 13.48
30.23 32.80 31.86 34.20 32.70 33.04 33.07 32.79 33.48 33.17 32.42 31.49 31.27 32.33 32.15 31.39 29.77 31.09 30.74 28.00 27.79 27.69 27.15 26.84 26.23 25.07 26.24 29.91 30.29 27.04 23.77 22.82 21.19 19.43 19.30 18.92 19.80 22.61 23.92 23.49 21.57 17.46 10.38
29.03 31.67 30.18 30.54 30.66 32.15 33.08 31.37 32.21 32.72 31.35 30.93 31.22 30.44 30.06 29.81 30.58 28.29 27.56 27.06 26.71 27.28 26.44 26.19 25.79 24.93 25.71 30.65 31.42 30.36 24.10 22.59 21.02 19.95 18.97 17.89 18.82 19.07 21.02 24.54 23.53 22.86 23.73
29.83 29.55 28.65 28.03 28.97 29.69 30.59 31.05 32.25 31.15 30.94 30.29 29.72 29.45 28.25 27.78 27.48 25.20 26.20 25.16 25.10 25.64 25.04 25.52 25.34 25.31 25.00 30.66 32.25 30.53 23.47 22.32 20.81 19.83 19.42 18.75 17.86 18.20 19.20 20.59 21.40 21.36 20.93
29.72 27.25 26.72 26.79 27.22 27.17 28.67 29.40 26.79 28.46 30.15 30.22 29.93 28.82 27.20 25.90 25.36 23.52 23.80 24.47 24.99 25.11 25.95 26.02 25.10 24.74 24.67 30.12 32.24 29.36 21.99 21.78 19.70 19.67 19.72 19.33 18.13 21.08 22.98 18.06 16.21 17.47 18.46
26.17 24.31 23.78 23.88 24.50 25.57 27.76 24.82 24.04 25.40 25.25 27.47 28.67 27.50 25.18 23.03 22.65 21.48 20.08 21.92 24.52 24.72 24.27 23.85 24.36 23.94 23.57 29.18 31.50 29.12 21.16 19.12 18.45 19.09 19.15 21.29 19.49 23.36 24.69 17.01 14.90 12.85 16.56
22.38 22.39 21.84 21.06 22.42 25.69 23.34 21.19 22.30 21.64 23.11 23.37 23.24 27.47 27.00 23.59 22.42 23.20 18.67 20.15 21.23 20.05 19.26 19.76 21.59 22.21 22.31 24.97 30.98 30.72 21.42 19.90 18.23 17.68 17.10 18.83 23.90 24.68 26.07 23.02 17.40 16.09 18.84
20.78 21.21 19.83 19.77 21.17 21.11 19.53 18.86 18.38 20.27 20.06 20.59 21.50 23.37 25.05 24.78 22.34 20.94 19.63 19.91 20.09 18.77 16.62 16.84 16.05 17.58 19.41 24.15 30.39 31.52 24.71 23.68 18.93 17.57 17.98 18.79 24.67 24.88 26.13 25.04 23.20 24.05 17.28
19.76 20.05 16.98 16.95 18.79 18.17 16.95 14.79 16.09 16.25 15.91 16.55 17.55 18.70 21.28 25.17 22.37 21.28 20.37 18.77 19.02 17.83 14.83 15.45 14.87 15.24 17.59 20.37 28.14 31.31 27.75 25.23 19.93 19.46 20.08 22.00 25.39 25.35 25.75 26.49 25.67 18.82 10.68
17.03 17.09 15.43 14.26 14.16 15.68 15.46 13.91 13.71 13.12 11.48 11.33 11.81 13.51 15.51 18.88 22.91 20.77 21.11 19.39 18.55 18.06 17.88 16.20 16.10 16.00 15.77 17.68 22.43 27.52 27.88 25.03 20.35 21.52 20.84 22.15 24.20 25.10 19.22 21.23 20.62 12.97 10.84
15.31 14.53 13.22 12.24 11.79 12.75 11.65 10.83 10.16 8.69 7.14 7.79 8.46 9.35 12.02 14.42 20.06 20.45 20.11 19.21 20.74 21.02 19.06 18.73 18.76 16.52 14.99 17.16 22.92 27.56 25.58 22.50 18.80 19.42 19.44 19.80 17.34 14.90 12.00 11.11 10.57 10.19 9.91
12.63 11.19 9.93 8.79 8.08 7.52 6.59 6.43 6.17 4.95 3.78 3.43 4.82 6.74 9.31 11.86 15.62 19.59 18.91 23.48 24.44 24.30 26.16 25.72 22.02 20.24 22.00 23.20 25.43 29.17 29.17 25.63 24.66 17.47 16.44 14.16 12.99 11.74 9.93 8.54 7.87 8.32 8.22
MSLP
1004.57 1004.19 1004.34 1004.70 1005.27 1005.86 1006.55 1007.13 1007.93 1008.48 1009.59 1010.60 1011.72 1013.03 1013.09 1014.06 1014.82 1015.09 1015.57 1016.29 1017.04 1017.76 1018.43 1019.28 1020.17 1020.74 1021.42 1021.75 1022.18 1022.67 1023.26 1023.53 1023.41 1023.53 1023.98 1024.17 1024.19 1024.35 1024.30 1024.16 1024.15 1024.00 1024.10
1004.34 1003.44 1004.20 1004.69 1005.06 1004.94 1005.48 1006.23 1006.84 1007.80 1008.34 1009.12 1009.95 1010.94 1011.85 1012.93 1013.46 1014.37 1015.13 1015.69 1016.47 1017.19 1017.91 1018.61 1019.41 1020.07 1020.86 1021.34 1021.68 1021.96 1022.99 1023.26 1023.26 1023.66 1024.18 1024.53 1024.64 1024.40 1024.37 1024.36 1024.34 1024.41 1024.17
1004.10 1003.42 1004.43 1004.74 1004.84 1004.77 1004.95 1005.19 1005.76 1006.49 1007.45 1008.69 1009.90 1011.05 1011.98 1012.99 1013.73 1014.31 1014.81 1015.10 1015.65 1016.34 1017.01 1017.82 1018.65 1019.49 1020.05 1020.65 1021.02 1021.41 1021.87 1022.71 1023.34 1023.20 1023.36 1024.50 1024.74 1024.98 1024.82 1024.56 1024.37 1024.39 1024.43
1004.88 1004.27 1004.11 1003.83 1003.89 1003.69 1004.05 1004.60 1005.66 1006.54 1006.79 1007.39 1008.53 1009.37 1009.90 1011.03 1011.16 1011.80 1013.14 1014.18 1014.82 1015.45 1016.23 1017.09 1017.91 1018.71 1019.52 1020.23 1020.64 1021.13 1021.42 1021.67 1022.80 1023.47 1023.35 1023.32 1023.68 1024.66 1025.09 1024.89 1024.76 1024.69 1024.64
1004.47 1004.15 1003.97 1003.52 1003.02 1003.07 1003.54 1004.24 1004.66 1005.87 1006.81 1007.25 1007.12 1007.78 1008.67 1009.60 1010.43 1011.52 1012.75 1013.77 1014.73 1015.31 1015.93 1016.52 1017.41 1018.21 1018.92 1019.50 1020.06 1020.68 1020.90 1021.14 1021.76 1022.29 1023.32 1023.88 1024.26 1024.46 1024.77 1025.01 1025.06 1024.88 1024.98
1004.90 1004.16 1003.85 1003.81 1003.76 1003.81 1004.05 1004.12 1004.76 1005.29 1006.45 1007.36 1007.72 1007.84 1008.47 1009.13 1010.11 1011.28 1012.20 1013.31 1014.26 1014.94 1015.42 1015.88 1016.42 1017.11 1017.93 1018.64 1019.29 1019.95 1020.36 1020.81 1021.14 1021.54 1022.00 1022.43 1023.38 1024.20 1024.58 1025.25 1025.23 1025.23 1025.05
1005.67 1005.00 1004.38 1004.11 1004.25 1004.56 1004.97 1005.19 1005.42 1005.65 1006.01 1006.91 1007.59 1007.89 1008.04 1008.38 1009.00 1009.73 1010.69 1011.85 1013.12 1014.07 1014.57 1015.01 1015.53 1016.20 1016.88 1017.78 1018.58 1019.36 1019.78 1020.24 1020.87 1021.39 1021.75 1021.86 1022.17 1022.61 1023.59 1024.36 1025.29 1025.41 1025.30
1005.49 1005.34 1005.07 1005.06 1004.90 1005.00 1004.95 1005.02 1005.40 1005.73 1005.86 1006.16 1006.73 1007.16 1007.87 1008.52 1008.87 1009.43 1009.81 1010.65 1011.18 1011.85 1013.20 1014.68 1015.41 1015.90 1016.57 1017.29 1018.09 1018.82 1019.43 1019.96 1020.46 1020.94 1021.26 1021.74 1022.17 1022.58 1022.87 1023.69 1024.64 1025.67 1025.63
1006.18 1005.46 1005.42 1005.17 1004.80 1005.23 1005.36 1005.20 1005.44 1005.38 1005.60 1006.06 1006.65 1006.81 1006.73 1007.52 1008.41 1008.63 1009.31 1010.09 1010.56 1011.31 1012.17 1013.03 1014.10 1015.16 1015.51 1016.16 1017.10 1017.98 1018.64 1019.49 1020.13 1020.75 1021.25 1021.63 1021.91 1022.23 1022.77 1023.09 1023.57 1024.37 1025.68
1007.25 1006.68 1006.91 1006.75 1006.41 1006.82 1006.95 1007.04 1007.18 1007.11 1006.68 1006.51 1006.53 1006.74 1006.90 1006.59 1007.02 1008.05 1008.75 1008.82 1009.58 1010.48 1011.57 1012.39 1013.05 1014.25 1015.36 1015.83 1016.32 1017.09 1017.80 1018.53 1019.32 1020.04 1020.65 1021.20 1021.63 1022.13 1022.73 1023.37 1023.62 1024.26 1025.00
1009.09 1008.47 1008.44 1008.17 1008.14 1007.56 1007.28 1007.42 1007.22 1007.43 1007.58 1007.76 1007.85 1007.43 1007.54 1007.39 1007.15 1007.61 1007.81 1008.23 1009.09 1009.79 1010.61 1011.25 1012.29 1012.89 1014.10 1015.11 1015.79 1016.24 1017.04 1017.84 1018.61 1019.25 1020.14 1020.77 1021.36 1022.02 1022.60 1023.45 1024.01 1024.23 1024.80
1010.78 1010.61 1010.02 1009.75 1009.13 1008.44 1008.26 1008.45 1008.43 1007.49 1007.21 1007.38 1007.13 1006.80 1006.94 1007.19 1007.25 1007.64 1007.52 1007.47 1007.83 1008.71 1009.41 1010.32 1011.26 1012.09 1012.83 1013.85 1014.71 1015.34 1015.91 1016.71 1017.51 1018.24 1019.61 1020.44 1021.37 1021.87 1022.46 1023.05 1023.69 1024.07 1025.00
1011.51 1011.28 1010.70 1010.16 1009.75 1009.42 1009.15 1009.12 1008.87 1008.25 1008.13 1007.86 1007.35 1006.84 1006.44 1006.77 1006.20 1006.11 1006.68 1007.22 1007.53 1007.50 1008.15 1008.93 1009.52 1010.42 1011.21 1012.22 1013.13 1013.81 1014.62 1015.63 1016.49 1017.05 1018.34 1019.42 1020.58 1021.68 1022.06 1022.13 1022.88 1023.86 1024.65
1012.89 1012.11 1011.66 1010.97 1010.56 1010.11 1009.62 1009.52 1009.19 1008.69 1008.59 1008.07 1007.34 1007.13 1006.52 1005.46 1004.99 1005.14 1005.65 1006.13 1006.41 1007.40 1007.66 1007.55 1008.19 1009.24 1009.63 1010.52 1011.57 1012.36 1013.75 1014.56 1015.62 1016.13 1017.07 1018.09 1019.31 1020.27 1021.12 1022.19 1022.65 1023.36 1023.97
1014.04 1012.90 1012.52 1011.99 1011.38 1010.26 1010.13 1009.67 1009.52 1009.35 1009.07 1008.14 1007.28 1006.59 1005.32 1004.78 1004.59 1004.65 1004.56 1005.02 1005.46 1005.43 1006.65 1007.70 1007.72 1008.09 1008.88 1009.13 1009.87 1010.78 1012.12 1013.28 1014.43 1015.48 1016.28 1017.17 1017.90 1019.22 1019.95 1021.01 1021.67 1022.45 1023.37
1014.17 1013.70 1013.16 1012.41 1011.94 1010.83 1010.19 1009.77 1009.53 1009.41 1009.11 1007.99 1007.62 1007.20 1005.91 1004.61 1004.70 1004.27 1003.85 1003.88 1004.75 1005.01 1005.80 1006.08 1006.68 1007.65 1007.64 1007.70 1008.46 1009.41 1010.71 1012.12 1012.82 1014.29 1015.56 1016.46 1017.20 1018.34 1018.57 1019.72 1020.79 1021.10 1022.03
1015.16 1014.39 1013.43 1012.87 1012.85 1012.23 1011.67 1010.88 1010.26 1009.66 1009.01 1008.39 1007.88 1007.21 1006.18 1005.23 1004.70 1004.19 1003.75 1003.54 1003.73 1004.12 1004.61 1005.15 1005.50 1005.59 1007.02 1006.92 1007.84 1008.96 1009.50 1010.55 1011.73 1012.70 1014.33 1015.51 1016.33 1017.36 1018.21 1019.00 1019.78 1020.14 1020.50
1014.50 1014.29 1013.70 1013.51 1013.40 1012.54 1011.75 1011.06 1010.42 1009.60 1008.88 1008.49 1008.16 1007.52 1006.69 1005.85 1004.81 1004.33 1003.75 1003.62 1003.56 1003.46 1003.73 1004.03 1004.37 1004.67 1005.76 1005.78 1006.74 1008.17 1009.17 1009.66 1010.26 1011.30 1012.59 1013.66 1014.76 1015.95 1016.72 1017.37 1018.36 1019.21 1019.22
1014.11 1013.89 1013.71 1013.47 1013.05 1012.46 1011.56 1010.85 1009.95 1009.53 1008.89 1008.14 1007.57 1007.14 1006.63 1006.17 1005.44 1004.46 1003.93 1003.60 1003.72 1003.79 1003.54 1003.34 1003.40 1004.23 1004.52 1004.26 1005.59 1007.60 1008.89 1009.10 1009.39 1010.44 1011.61 1012.67 1013.71 1014.81 1015.85 1016.69 1017.71 1018.36 1018.61
1014.24 1014.10 1013.85 1013.64 1013.31 1012.29 1011.42 1010.98 1010.51 1009.93 1009.17 1008.74 1008.47 1007.83 1007.10 1006.50 1005.82 1004.41 1004.00 1003.95 1003.92 1003.97 1003.87 1003.33 1003.57 1004.17 1004.09 1004.15 1005.09 1006.25 1007.57 1008.72 1009.39 1010.19 1010.98 1011.48 1012.42 1013.70 1014.53 1015.55 1016.38 1017.31 1017.81
1013.98 1013.81 1013.56 1013.24 1012.60 1012.07 1011.68 1011.22 1010.57 1010.10 1009.35 1009.01 1008.51 1007.30 1006.27 1005.66 1004.83 1004.33 1003.96 1004.07 1003.86 1003.51 1003.50 1003.90 1004.01 1004.11 1004.41 1004.29 1004.73 1005.25 1007.03 1007.55 1008.81 1009.49 1010.29 1011.03 1011.90 1012.92 1013.68 1014.86 1015.51 1016.50 1016.89
1013.76 1013.52 1013.35 1012.83 1012.19 1011.95 1011.88 1011.41 1010.74 1010.22 1009.70 1009.23 1008.01 1006.67 1006.05 1004.99 1004.71 1004.30 1004.31 1003.87 1004.05 1003.26 1003.23 1003.35 1004.08 1004.35 1004.41 1004.38 1004.05 1004.66 1005.87 1006.70 1007.57 1008.31 1008.86 1009.78 1010.96 1012.20 1012.95 1014.02 1015.00 1015.57 1016.37
1013.65 1013.30 1013.26 1012.63 1011.79 1011.68 1011.69 1011.10 1010.34 1010.36 1009.54 1008.50 1007.20 1006.37 1005.79 1004.64 1004.34 1004.12 1003.61 1003.74 1003.31 1003.30 1002.87 1003.20 1003.73 1003.36 1003.79 1004.24 1004.02 1004.20 1004.93 1006.43 1007.51 1008.01 1008.23 1008.85 1010.25 1011.38 1012.23 1013.09 1014.16 1015.03 1016.26
1013.40 1013.20 1012.82 1012.22 1011.31 1010.90 1010.79 1010.59 1010.15 1009.91 1009.34 1008.43 1007.40 1006.40 1005.65 1004.37 1003.49 1003.15 1002.78 1002.30 1002.28 1002.14 1002.29 1001.97 1002.28 1002.56 1002.80 1003.04 1003.29 1003.35 1004.07 1005.78 1007.45 1007.77 1008.56 1009.20 1010.01 1011.09 1012.50 1013.17 1014.05 1014.97 1015.20
1012.98 1013.01 1012.56 1011.94 1010.98 1010.62 1010.19 1010.31 1010.13 1009.87 1009.07 1008.30 1007.21 1006.10 1005.06 1003.82 1002.53 1001.72 1000.99 1000.62 1000.33 1000.77 1000.73 1000.01 1000.50 1000.77 1001.17 1001.16 1001.63 1001.58 1002.80 1004.21 1006.25 1007.50 1008.04 1008.98 1010.20 1011.46 1012.96 1014.13 1014.74 1015.37 1015.64
1012.95 1012.64 1012.26 1011.96 1011.06 1010.60 1009.84 1009.97 1010.01 1009.73 1008.83 1007.53 1006.49 1005.55 1004.45 1003.25 1002.07 1000.58 999.58 999.05 999.30 999.70 999.26 999.38 998.59 999.27 999.42 999.96 1001.06 1001.66 1001.98 1003.66 1004.76 1006.42 1007.29 1008.08 1009.52 1010.80 1011.73 1013.17 1013.89 1015.16 1015.50
Wind_Speed
22 19 9 9 9 8 11 15 15 15 14 12 12 8 13 9 8 9 11 11 9 10 9 6 7 6 7 6 6 4 4 1 1 3 3 4 3 5 5 3 4 6 5
19 21 7 7 9 11 13 13 15 15 16 13 11 4 10 7 8 7 8 10 10 10 10 10 9 9 6 7 7 6 4 2 2 4 2 2 2 2 2 2 3 5 3
20 21 7 8 9 10 13 15 16 17 15 13 8 4 6 4 4 4 6 9 13 13 12 12 10 10 8 8 7 6 6 5 2 3 5 2 3 1 2 1 1 5 4
9 10 10 8 10 11 8 9 9 12 14 17 15 15 10 10 9 11 9 10 13 13 13 12 11 11 7 7 7 5 4 5 5 2 2 4 4 4 1 2 2 3 2
8 11 11 10 9 6 9 8 12 12 13 15 17 15 14 9 4 5 10 10 9 11 11 11 10 10 8 7 9 7 7 4 5 4 4 2 4 3 3 3 3 3 1
12 13 7 8 9 5 2 7 10 11 10 12 13 16 15 8 9 8 10 9 8 8 11 12 12 11 10 10 9 7 8 6 4 3 4 5 5 4 4 2 3 2 3
10 11 11 11 9 4 1 3 6 7 9 12 12 12 13 13 15 13 12 13 10 9 13 14 13 10 11 10 9 8 7 7 5 6 4 3 3 4 3 3 2 1 2
8 11 11 8 9 6 4 7 8 7 8 10 11 9 8 6 7 9 8 10 11 12 12 12 11 11 11 10 9 6 5 6 5 7 5 3 4 3 3 4 5 1 2
9 9 11 7 7 6 6 6 7 7 8 10 8 9 11 10 10 10 9 9 9 8 12 15 14 12 13 13 12 8 9 8 6 6 6 4 3 4 3 3 4 5 3
9 10 14 14 10 7 6 7 7 7 4 7 9 10 11 12 10 10 13 12 12 11 13 15 15 14 12 12 13 9 9 11 8 7 9 6 5 5 4 4 3 2 2
18 18 17 16 16 13 10 8 6 6 7 5 6 7 6 7 7 10 12 13 10 13 14 16 15 16 16 14 13 12 12 13 11 9 10 9 8 6 5 4 3 4 4
19 17 14 14 15 15 16 17 13 9 9 7 7 8 8 8 8 10 11 12 14 14 16 16 15 16 17 16 17 16 14 15 14 13 11 10 7 8 7 5 6 6 5
18 17 18 17 16 15 15 15 14 15 11 13 10 10 10 10 14 15 13 12 13 15 15 16 18 19 19 18 18 17 16 16 14 14 14 12 12 10 8 8 8 5 5
18 16 16 16 15 16 15 15 14 15 15 12 10 13 11 14 15 14 13 13 14 13 15 18 18 18 19 19 19 17 16 15 14 13 13 14 14 13 11 8 8 6 7
18 17 17 15 16 16 16 16 15 15 14 14 17 15 10 8 10 11 13 12 14 16 15 14 15 16 17 15 19 19 18 17 15 13 13 12 12 18 15 9 10 9 6
14 14 16 14 18 19 17 17 16 17 16 15 14 16 14 9 9 11 11 11 14 14 14 16 16 16 13 27 32 24 18 17 17 15 13 11 14 18 21 19 18 14 9
15 12 15 15 15 16 14 16 15 13 15 15 14 15 16 15 12 8 7 11 14 13 15 16 16 17 16 29 31 30 15 17 16 16 14 12 10 12 12 19 19 18 19
11 11 11 12 13 15 14 14 14 15 13 13 12 14 16 15 13 7 7 6 8 13 14 15 16 16 16 29 31 29 15 16 17 17 18 17 16 16 15 15 12 9 7
8 9 10 12 13 14 15 14 15 15 15 15 15 16 15 16 13 7 7 5 6 9 12 12 14 17 15 29 31 28 15 15 16 15 16 16 16 23 25 13 12 9 8
8 10 10 7 9 13 12 13 15 15 15 15 16 14 12 12 13 8 5 3 5 8 7 8 10 13 12 28 32 29 12 14 11 13 14 21 18 27 29 15 13 11 9
11 10 10 10 12 10 10 14 13 15 14 15 17 18 12 11 10 9 2 4 4 3 3 3 5 9 12 17 33 33 12 11 11 11 12 11 25 26 27 21 11 9 9
14 13 12 13 14 11 10 14 16 14 13 15 17 16 18 10 6 7 6 4 6 7 6 7 4 4 7 16 29 33 24 21 14 14 11 12 27 25 25 19 19 19 11
14 12 10 15 17 13 9 14 15 13 16 18 18 17 17 15 10 9 9 6 7 6 7 8 8 7 7 8 25 32 28 23 10 9 15 23 27 25 22 22 20 8 6
14 13 13 16 19 16 15 14 15 15 15 18 19 17 16 16 12 9 9 8 8 9 9 10 10 9 9 10 11 13 16 20 12 16 12 16 18 16 9 7 10 6 5
16 13 14 16 21 20 19 16 16 15 17 18 17 17 14 15 15 12 10 10 11 12 10 10 9 11 11 13 18 18 13 13 16 14 11 11 8 8 6 5 5 4 5
17 17 19 19 22 21 21 18 16 16 18 19 15 13 12 12 13 12 10 20 23 22 26 22 15 10 16 22 28 29 27 30 33 12 11 12 11 10 10 8 7 6 6
Wind_Direction
278 274 253 219 213 202 194 196 186 187 170 174 173 179 196 184 190 188 186 183 177 172 168 161 158 162 172 174 163 126 142 55 15 105 52 43 77 50 45 63 50 50 33
288 283 271 222 206 208 200 191 192 181 185 184 187 174 183 196 195 179 180 178 170 171 172 170 176 174 161 167 175 158 143 130 35 129 101 58 356 37 50 92 79 45 42
274 291 329 244 242 222 200 197 193 183 181 174 155 81 84 65 121 171 182 185 180 178 177 177 174 176 173 181 182 169 165 144 55 65 139 111 214 356 316 310 77 51 38
291 281 290 263 237 242 202 184 176 180 180 169 172 179 187 182 202 193 192 190 186 180 177 177 176 178 174 171 177 172 175 134 154 113 60 69 135 166 316 316 311 351 54
305 299 290 280 260 226 191 182 162 170 184 188 184 183 192 188 145 146 168 179 184 184 180 177 171 174 177 174 170 171 175 179 148 151 154 90 50 61 124 229 319 4 313
322 311 304 306 303 359 178 157 165 165 172 187 194 198 197 153 151 160 170 173 176 179 185 179 182 181 176 175 179 177 174 180 156 153 161 160 163 180 155 167 234 240 288
315 324 336 348 342 339 165 136 151 167 165 184 195 201 198 182 183 175 179 171 176 193 202 188 183 181 180 177 167 173 176 172 175 171 179 155 157 135 125 116 133 200 302
345 347 343 353 336 321 171 166 176 179 180 186 197 191 196 193 198 186 178 182 188 189 175 188 186 183 176 172 170 168 169 162 167 172 165 151 154 135 136 145 141 170 269
332 334 334 354 353 310 260 209 200 198 186 194 193 198 185 185 193 177 175 188 190 180 171 180 181 184 179 174 170 175 171 166 164 170 162 152 163 148 143 132 143 149 193
324 347 5 7 19 352 334 328 317 289 255 217 211 211 215 205 185 178 196 184 182 170 174 181 182 180 185 180 176 174 167 167 173 169 167 166 158 153 149 160 143 131 141
17 16 13 16 11 7 2 343 332 317 294 277 274 258 251 224 197 201 198 194 177 176 179 183 185 181 184 185 183 180 172 180 174 170 174 171 157 154 148 143 148 160 158
6 4 8 5 10 12 13 8 347 335 315 275 247 234 227 214 215 222 214 188 185 182 183 182 185 188 189 185 188 183 181 180 180 173 172 171 160 160 157 161 172 168 174
6 359 359 5 8 8 7 3 355 1 340 309 282 254 231 215 221 222 216 207 199 191 188 184 186 190 190 187 191 187 181 186 186 175 175 170 164 174 178 170 168 165 172
357 356 356 356 356 356 358 356 350 353 343 334 296 265 239 225 229 228 216 206 200 202 199 193 192 194 189 189 189 183 184 183 184 176 176 170 179 177 171 174 171 166 170
347 352 350 342 344 348 347 349 344 343 339 341 339 325 289 260 239 228 217 204 204 198 199 200 198 191 195 191 187 185 182 178 176 176 176 177 172 175 174 172 177 170 168
338 340 340 342 338 340 339 340 341 338 333 342 343 335 324 298 264 244 224 200 204 200 196 200 194 198 200 196 192 183 180 181 177 175 174 171 171 187 183 188 190 181 172
316 331 331 333 330 327 329 329 328 328 331 333 333 338 336 325 297 258 228 210 205 195 201 201 195 196 207 199 196 192 182 178 179 170 171 165 170 173 177 191 190 193 196
310 316 318 320 315 318 321 323 325 324 326 325 324 334 334 321 304 278 244 241 213 204 201 201 199 197 203 198 195 191 185 179 176 174 175 174 170 179 179 182 193 195 195
300 310 311 307 314 314 318 324 327 323 323 324 323 328 331 319 306 269 260 239 227 222 218 207 197 203 203 195 189 186 188 184 175 171 173 174 172 183 184 173 178 186 200
296 298 294 280 287 296 313 322 315 317 319 326 320 305 307 297 290 273 256 240 225 233 222 211 204 210 202 196 191 184 178 178 173 171 176 177 174 183 185 175 174 181 195
298 296 299 291 291 286 312 304 305 305 312 315 310 304 297 292 289 286 250 242 215 172 189 200 209 205 200 202 198 186 186 178 170 175 173 180 184 187 188 181 177 187 170
296 297 299 299 298 301 304 295 293 304 307 299 299 308 308 290 272 247 254 222 218 188 177 168 183 204 204 215 205 197 187 184 178 181 172 167 181 187 190 188 189 197 142
286 290 284 288 290 290 281 284 291 306 306 305 304 305 302 298 259 245 231 221 205 214 189 190 199 184 186 215 215 204 186 197 186 175 166 165 179 182 191 190 195 151 142
285 290 289 284 287 291 292 286 302 309 302 298 297 298 294 292 270 240 231 220 214 207 209 196 201 190 185 188 209 204 180 188 172 164 157 167 173 176 141 166 171 155 148
293 293 285 287 287 296 293 299 302 305 295 291 288 287 285 282 278 241 230 228 229 218 218 208 199 185 192 198 197 187 174 168 158 153 155 162 150 147 144 148 141 146 141
294 296 293 292 293 296 295 297 297 297 290 285 284 281 281 280 279 265 250 241 239 238 236 229 198 204 200 187 199 205 178 172 164 159 170 165 165 168 158 164 156 167 158